Flight Track Log - Related Links

Times and Time Zones

All times are in EST time to prevent confusion due to time zone crossing. See the N27XP flight status page for this flight to view local times or setup timezone preferences in your user account.

Time Position Orientation Groundspeed Altitude Reporting Facility
EST Latitude Longitude Course Direction KTS MPH feet Rate Location/Type
Fri 04:32:34 PM 38.6833 -77.5333 270° West 232 267 2,200  Level Potomac TRACON
Fri 04:33:34 PM 38.6833 -77.6167 270° West 227 261 6,200 3,372 Climbing Potomac TRACON
Fri 04:34:35 PM 38.6167 -77.6500 201° Southwest 284 327 9,000 2,147 Climbing Potomac TRACON
Fri 04:35:09 PM 38.5836 -77.6156 141° Southeast 323 372 9,600 1,705 Climbing Washington Center
Fri 04:36:10 PM 38.5250 -77.5131 126° Southeast 367 422 11,700 1,966 Climbing Washington Center
Fri 04:37:08 PM 38.4703 -77.4108 124° Southeast 359 413 13,500 1,513 Climbing Washington Center
Fri 04:38:09 PM 38.3942 -77.3375 143° Southeast 360 414 14,700 1,180 Climbing Washington Center
Fri 04:39:10 PM 38.3350 -77.3917 216° Southwest 247 284 15,900 1,587 Climbing Washington Center
Fri 04:40:10 PM 38.3417 -77.4897 275° West 168 193 17,900 1,563 Climbing Washington Center
Fri 04:41:09 PM 38.3006 -77.5814 240° Southwest 233 268 19,000 1,200 Climbing Washington Center
Fri 04:42:10 PM 38.2511 -77.6806 238° Southwest 304 350 20,300 1,388 Climbing Washington Center
Fri 04:43:10 PM 38.1869 -77.7686 227° Southwest 325 374 21,800 864 Climbing Washington Center
Fri 04:44:08 PM 38.1000 -77.8400 213° Southwest 351 404 22,000 101 Climbing Washington Center
Fri 04:45:09 PM 38.0069 -77.9189 214° Southwest 369 425 22,000  Level Washington Center
Fri 04:46:10 PM 37.9136 -77.9975 214° Southwest 388 447 22,000 -50 Level Washington Center
Fri 04:47:10 PM 37.8244 -78.0736 214° Southwest 399 459 21,900  Descending Washington Center
Fri 04:48:09 PM 37.7353 -78.1467 213° Southwest 399 459 22,000 101 Climbing Washington Center
Fri 04:49:09 PM 37.6522 -78.2200 215° Southwest 387 445 22,100  Climbing Washington Center
Fri 04:50:10 PM 37.5653 -78.2931 214° Southwest 382 440 22,000 -50 Descending Washington Center
Fri 04:51:08 PM 37.4758 -78.3658 213° Southwest 382 440 22,000  Level Washington Center
Fri 04:52:09 PM 37.3867 -78.4383 213° Southwest 382 440 22,000  Level Washington Center
Fri 04:53:10 PM 37.2972 -78.5106 213° Southwest 382 440 22,000  Level Washington Center
Fri 04:54:08 PM 37.2056 -78.5856 213° Southwest 382 440 22,000  Level Washington Center
Fri 04:55:09 PM 37.1206 -78.6525 212° Southwest 394 453 22,000  Level Washington Center
Fri 04:56:09 PM 37.0267 -78.7294 213° Southwest 405 466 22,000  Level Washington Center
Fri 04:57:10 PM 36.9328 -78.8086 214° Southwest 405 466 22,000  Level Washington Center
Fri 04:58:09 PM 36.8292 -78.8614 202° Southwest 405 466 22,000 -252 Level Washington Center
Fri 04:59:09 PM 36.7158 -78.8825 188° South 405 466 21,500 -1,488 Descending Washington Center
Fri 05:00:10 PM 36.6089 -78.9092 191° South 403 464 19,000 -2,600 Descending Washington Center
Fri 05:01:09 PM 36.5100 -78.9308 190° South 384 442 16,300 -2,521 Descending Washington Center
Fri 05:02:09 PM 36.4133 -78.9550 191° South 368 423 14,000 -1,140 Descending Washington Center
Fri 05:03:10 PM 36.3186 -78.9844 194° South 358 412 14,000  Level Washington Center
Fri 05:04:08 PM 36.2114 -79.0183 194° South 358 412 14,000 -252 Level Washington Center
Fri 05:05:09 PM 36.1356 -79.0433 195° South 363 418 13,500 -496 Descending Washington Center
Fri 05:06:09 PM 36.0344 -79.0750 194° South 357 411 13,000 -448 Descending Washington Center
Fri 05:06:16 PM 36.0114 -79.0817 193° South 331 381 13,000 -649 Level Washington Center
Fri 05:06:46 PM 35.9756 -79.0956 197° South 313 360 12,600 -1,111 Descending Washington Center
Fri 05:07:10 PM 35.9481 -79.1019 191° South 339 390 12,000 -2,164 Descending Washington Center
Fri 05:07:47 PM 35.8869 -79.1250 197° South 323 372 10,400 -2,690 Descending Washington Center
Fri 05:08:08 PM 35.8533 -79.1336 192° South 326 375 9,400 -2,656 Descending Washington Center
Fri 05:08:48 PM 35.7964 -79.1517 194° South 312 359 7,700 -2,459 Descending Washington Center
Fri 05:09:09 PM 35.7733 -79.1583 193° South 315 362 6,900 -1,700 Descending Washington Center
Fri 05:09:48 PM 35.7228 -79.1764 196° South 283 326 6,000 -885 Descending Washington Center
Fri 05:10:10 PM 35.6994 -79.1806 188° South 291 335 6,000 -375 Level Washington Center
Fri 05:11:08 PM 35.6322 -79.2031 195° South 263 303 5,500 -661 Descending Washington Center
Fri 05:12:08 PM 35.5667 -79.2256 196° South 263 303 4,700 -942 Descending Washington Center
Fri 05:13:09 PM 35.4992 -79.2481 195° South 268 308 3,600 -639 Descending Washington Center
Fri 05:14:10 PM 35.4233 -79.2725 195° South 268 308 3,400 2,218 Descending Washington Center
Fri 05:15:08 PM 35.3539 -79.2950 195° South 268 308 8,000 2,319 Climbing Washington Center
Fri 05:16:09 PM 35.2864 -79.3172 195° South 268 308 8,000  Level Washington Center

Login

Don't have an account? Register now (free) for customized features, flight alerts, and more!